Weather History for Sidney, NE

Change the Weather History Date:

Monday, January 21, 2013

  Actual Average Record
Temperature  
Mean Temperature 28 °F 29 °F  
Max Temperature 48 °F 42 °F 68 °F (1950)
Min Temperature 8 °F 16 °F -23 °F (1966)
Degree Days  
Heating Degree Days 37 36  
Month to date heating degree days 833 756  
Since 1 July heating degree days 3389 3303  
Moisture  
Dew Point 13 °F    
Average Humidity 57    
Maximum Humidity 88    
Minimum Humidity 26    
Precipitation  
Precipitation 0.00 in 0.01 in 0.28 in (1988)
Month to date precipitation T 0.13  
Year to date precipitation T 0.13  
Sea Level Pressure  
Sea Level Pressure 30.25 in    
Wind  
Wind Speed 7 mph (WSW)    
Max Wind Speed 12 mph    
Max Gust Speed 14 mph    
Visibility 10 miles    
Events      
T = Trace of Precipitation, MM = Missing Value Source: NWS Daily Summary

Daily Weather History Graph

Daily Weather History Graph

Search for Another Location

Airport:

Trip Planner

Search our weather history database for the weather conditions in past years. The results will help you decide how hot, cold, wet, or windy it might be!

Date:

Astronomy

Jan. 21, 2013 Rise Set
Actual Time 7:11 AM MST 4:55 PM MST
Civil Twilight 6:41 AM MST 5:25 PM MST
Nautical Twilight 6:08 AM MST 5:59 PM MST
Astronomical Twilight 5:35 AM MST 6:31 PM MST
Moon 12:36 PM MST (1/21) 2:41 AM MST (1/21)
Length of Visible Light 10h 43m
Length of Day
9h 44m
Waxing Gibbous, 75% of the Moon is Illuminated
Jan 21
Waxing Gibbous
Jan 26
Full
Feb 3
Last Quarter
Feb 10
New
Feb 17
First Quarter

Hourly Weather History & Observations

Time (MST) Temp. Windchill Dew Point Humidity Pressure Visibility Wind Dir Wind Speed Gust Speed Precip Events Conditions
12:53 AM 12.9 °F 6.9 °F 9.0 °F 84% 30.36 in 10.0 mi NW 3.5 mph - N/A   Clear
1:53 AM 14.0 °F 2.0 °F 10.0 °F 84% 30.34 in 10.0 mi WSW 9.2 mph - N/A   Clear
2:53 AM 14.0 °F 2.0 °F 10.0 °F 84% 30.34 in 10.0 mi West 9.2 mph - N/A   Clear
3:53 AM 12.0 °F 1.5 °F 8.1 °F 84% 30.34 in 10.0 mi West 6.9 mph - N/A   Clear
4:53 AM 10.0 °F -1.9 °F 6.1 °F 84% 30.33 in 10.0 mi West 8.1 mph - N/A   Clear
5:53 AM 10.9 °F 1.4 °F 6.1 °F 81% 30.34 in 10.0 mi WSW 5.8 mph - N/A   Clear
6:53 AM 10.9 °F 2.9 °F 6.1 °F 81% 30.32 in 10.0 mi NE 4.6 mph - N/A   Clear
7:53 AM 15.1 °F 5.2 °F 10.0 °F 80% 30.33 in 10.0 mi NE 6.9 mph - N/A   Clear
8:53 AM 19.9 °F 14.9 °F 15.1 °F 81% 30.32 in 10.0 mi ESE 3.5 mph - N/A   Clear
9:53 AM 27.0 °F 21.6 °F 18.0 °F 69% 30.32 in 10.0 mi NE 4.6 mph - N/A   Clear
10:53 AM 30.0 °F 26.5 °F 18.0 °F 61% 30.32 in 10.0 mi Variable 3.5 mph - N/A   Clear
11:53 AM 36.0 °F 30.3 °F 17.1 °F 46% 30.24 in 10.0 mi NW 6.9 mph - N/A   Clear
12:53 PM 43.0 °F 37.2 °F 15.1 °F 32% 30.19 in 10.0 mi NNW 10.4 mph - N/A   Clear
1:53 PM 46.9 °F - 14.0 °F 27% 30.14 in 10.0 mi North 4.6 mph - N/A   Clear
2:53 PM 46.9 °F - 15.1 °F 28% 30.13 in 10.0 mi NE 8.1 mph - N/A   Clear
3:53 PM 42.1 °F 37.1 °F 15.1 °F 34% 30.17 in 10.0 mi ENE 8.1 mph - N/A   Clear
4:53 PM 32.0 °F 26.4 °F 14.0 °F 48% 30.19 in 10.0 mi SE 5.8 mph - N/A   Clear
5:53 PM 28.0 °F 21.7 °F 15.1 °F 58% 30.21 in 10.0 mi South 5.8 mph - N/A   Mostly Cloudy
6:53 PM 28.0 °F 20.8 °F 16.0 °F 61% 30.21 in 10.0 mi SSE 6.9 mph - N/A   Mostly Cloudy
7:53 PM 25.0 °F 14.8 °F 18.0 °F 75% 30.19 in 10.0 mi SSW 10.4 mph - N/A   Clear
8:53 PM 23.0 °F 13.9 °F 16.0 °F 74% 30.19 in 10.0 mi SW 8.1 mph - N/A   Partly Cloudy
9:53 PM 19.9 °F 9.3 °F 15.1 °F 81% 30.17 in 10.0 mi SW 9.2 mph - N/A   Partly Cloudy
10:53 PM 19.9 °F 8.6 °F 15.1 °F 81% 30.16 in 10.0 mi SW 10.4 mph - N/A   Clear
11:53 PM 21.0 °F 12.4 °F 17.1 °F 85% 30.12 in 10.0 mi SW 6.9 mph - N/A   Clear